[[{"header":{"parameterUnit":"m.s-1","parameterCategory":1,"la1":30.2991,"la2":30.254,"lo1":-89.0895,"lo2":-89.0444,"dy":0.0017,"dx":0.0017,"nx":28,"ny":28,"refTime":"2024-08-07T03:00:00:Z","depth":0,"parameterNumber":2,"parameterNumberName":"U-component_of_WINDS"},"data":[0,0,0,0,0,0,0,0,0,0,0,0,0,0,0,0,0,0,0,0,0,0,0,0,0,0,0,0,0,0,0,0,0,0,0,0,0,0,0,0,0,0,0,0,0,0,0,0,0,0,0,0,0,0,0,0,0,0,1.5515,1.5515,0,1.5534,1.5535,1.5535,1.5529,1.5529,1.5528,1.5528,1.5547,1.5548,1.5549,0,0,0,0,0,0,0,0,0,0,0,0,0,1.5474,1.5475,1.5515,1.5515,1.5516,1.5534,1.5535,1.5535,1.5529,1.5529,1.5528,1.5528,1.5547,1.5548,1.5549,0,0,0,0,0,0,0,0,0,0,0,0,0,1.5493,1.5475,1.5515,1.5515,1.5515,1.5534,1.5535,1.5535,1.5529,1.5529,1.5528,1.5528,1.5546,1.5548,1.5549,1.5569,0,0,1.5553,1.5554,0,0,0,0,0,0,0,0,1.5492,1.5494,1.5515,1.5515,1.5515,1.5529,1.5527,1.5546,1.5529,1.5524,1.5528,1.5527,1.5541,1.5543,1.5548,1.557,1.5571,1.5553,1.5554,1.5554,1.5555,0,0,0,0,0,0,0,1.549,1.5493,1.5523,1.5515,1.5516,1.5514,1.5516,1.5531,1.5536,1.5524,1.5524,1.5526,1.5541,1.5547,1.5548,1.5571,1.5553,1.5554,1.5555,1.5556,1.5612,1.5612,0,0,0,0,0,0,1.5489,1.5492,1.5522,1.5523,1.5502,1.5516,1.5518,1.5525,1.5536,1.5537,1.5527,1.5526,1.5545,1.5547,1.5549,1.5574,1.5554,1.5556,1.5556,1.5611,1.5612,1.5613,0,0,0,0,0,0,1.5488,1.5492,1.5521,1.5508,1.5511,1.5517,1.5525,1.5526,1.5531,1.5538,1.5538,1.5531,1.5544,1.5547,1.5564,1.5574,1.5556,1.5557,1.561,1.5611,1.5612,1.5623,0,0,0,0,0,0,1.5487,1.5491,1.5499,1.5508,1.5512,1.5536,1.5526,1.5527,1.5533,1.5532,1.5542,1.5543,1.5544,1.5563,1.5566,1.5576,1.5559,1.5609,1.5611,1.5612,1.5622,1.5624,1.5626,0,0,0,0,0,1.5485,1.55,1.5499,1.5503,1.5522,1.5537,1.5539,1.554,1.5534,1.5542,1.5546,1.5543,1.5573,1.5564,1.5568,1.5578,1.5609,1.561,1.5612,1.562,1.5624,1.5626,0,0,0,0,0,0,1.5491,1.5502,1.55,1.5519,1.5527,1.5536,1.5545,1.5544,1.5554,1.5552,1.5553,1.5556,1.5573,1.5578,1.5568,1.5599,1.559,1.5592,1.5595,1.5598,1.5601,1.5599,1.556,0,0,0,0,0,1.5495,1.5507,1.5515,1.553,1.5535,1.554,1.5546,1.5547,1.5555,1.5559,1.5564,1.5573,1.5584,1.5592,1.5603,1.5623,1.5625,1.5632,1.5634,1.5636,1.5638,1.565,1.5653,1.5618,1.5618,1.5618,0,0,1.5502,1.5509,1.5516,1.5532,1.5538,1.555,1.5542,1.5555,1.5564,1.556,1.5577,1.5582,1.5591,1.5611,1.5619,1.5615,1.5648,1.5638,1.564,1.564,1.5652,1.5655,1.5658,1.5619,1.5619,1.5619,0,0,1.5521,1.5528,1.5542,1.5549,1.5559,1.5563,1.5566,1.5576,1.5579,1.5596,1.5594,1.5605,1.5624,1.5632,1.5638,1.5662,1.5659,1.5666,1.5678,1.5689,1.5692,1.5694,1.5703,1.5706,1.5668,1.5668,1.5668,0,1.5529,1.5547,1.5549,1.5563,1.557,1.5568,1.5583,1.5589,1.5603,1.5608,1.5603,1.5629,1.5635,1.5656,1.5662,1.5667,1.5672,1.5664,1.5691,1.5694,1.5696,1.5705,1.5708,1.5669,1.5669,1.5669,1.5668,0,1.5556,1.5569,1.5579,1.5592,1.5601,1.5615,1.562,1.5628,1.5629,1.5633,1.5651,1.5659,1.5671,1.5677,1.5677,1.5698,1.5695,1.5691,1.5682,1.57,1.5708,1.5711,1.567,1.5669,1.5669,1.5669,0,0,1.5577,1.5594,1.5597,1.5604,1.5616,1.5626,1.5641,1.5654,1.5661,1.5671,1.5683,1.5701,1.5698,1.5705,1.5706,1.5716,1.5736,1.5711,1.5711,1.5715,1.576,1.5763,1.5767,1.5735,1.5735,1.5736,1.576,0,1.5597,1.5623,1.5626,1.5648,1.5661,1.566,1.5673,1.5682,1.5687,1.5698,1.5704,1.5716,1.5711,1.5715,1.5726,1.5731,1.5745,1.573,1.5746,1.5746,1.5743,1.5771,1.5773,1.5795,1.5763,1.5763,1.5764,0,1.5623,1.5635,1.5659,1.5671,1.5676,1.5687,1.57,1.5711,1.5722,1.5725,1.5734,1.5735,1.575,1.5741,1.5763,1.5753,1.576,1.5764,1.5765,1.5766,1.5755,1.5772,1.5802,1.5805,1.5768,1.5768,1.5768,0,1.5637,1.5658,1.5675,1.5681,1.5695,1.5703,1.571,1.572,1.5728,1.574,1.5746,1.5759,1.5766,1.5777,1.5781,1.5774,1.5803,1.5794,1.5806,1.5806,1.5811,1.581,1.5842,1.5817,1.5817,1.5816,1.5816,0,1.5658,1.5673,1.5681,1.5692,1.5709,1.5713,1.573,1.5736,1.5746,1.5758,1.5758,1.577,1.5775,1.5788,1.5792,1.5809,1.5813,1.5815,1.5816,1.5815,1.5814,1.5819,1.5817,1.5817,1.5817,1.5817,1.5817,0,1.5675,1.5681,1.57,1.5713,1.5716,1.5728,1.5739,1.575,1.5755,1.5771,1.5775,1.5783,1.5798,1.5804,1.5822,1.5825,1.5845,1.5845,1.5841,1.5841,1.5852,1.5851,1.5887,1.5893,1.5864,1.5865,1.5865,0,1.5687,1.5699,1.5713,1.5722,1.5728,1.5742,1.575,1.5756,1.5765,1.578,1.5789,1.5804,1.5816,1.584,1.5848,1.5862,1.5862,1.5874,1.5864,1.5863,1.5862,1.5861,1.5862,1.5875,1.5875,1.5875,1.5876,0,1.5709,1.5713,1.5725,1.5739,1.575,1.5761,1.5773,1.5779,1.5787,1.5797,1.5813,1.5822,1.5842,1.5857,1.5872,1.5879,1.5879,1.5879,1.5882,1.5881,1.5878,1.588,1.5846,1.5878,1.5878,1.5877,1.5877,1.5877,1.5724,1.5735,1.5747,1.5761,1.577,1.5781,1.5792,1.58,1.5813,1.5829,1.5832,1.5849,1.5861,1.5881,1.5889,1.5902,1.5899,1.5904,1.5905,1.5906,1.5907,1.5877,1.5905,1.5905,1.5905,1.5905,1.5905,0,1.5746,1.5754,1.5767,1.5784,1.5795,1.5795,1.5808,1.5818,1.5833,1.5844,1.5857,1.5875,1.589,1.5901,1.5916,1.5925,1.5925,1.5929,1.5928,1.5929,1.5909,1.5904,1.5928,1.5928,1.5928,1.5928,1.5928,1.5928,1.5758,1.5776,1.5781,1.5804,1.5812,1.5829,1.5837,1.5847,1.5856,1.5877,1.589,1.5897,1.5908,1.5925,1.5939,1.5941,1.5947,1.595,1.5953,1.5933,1.5931,1.5928,1.5924,1.5952,1.5952,1.5972,1.5972,1.5973]},{"header":{"parameterUnit":"m.s-1","parameterCategory":1,"la1":30.2991,"la2":30.254,"lo1":-89.0895,"lo2":-89.0444,"dy":0.0017,"dx":0.0017,"nx":28,"ny":28,"refTime":"2024-08-07T03:00:00:Z","depth":0,"parameterNumber":3,"parameterNumberName":"V-component_of_WINDS"},"data":[0,0,0,0,0,0,0,0,0,0,0,0,0,0,0,0,0,0,0,0,0,0,0,0,0,0,0,0,0,0,0,0,0,0,0,0,0,0,0,0,0,0,0,0,0,0,0,0,0,0,0,0,0,0,0,0,0,0,-4.7445,-4.7446,0,-4.757,-4.7571,-4.7573,-4.7476,-4.7472,-4.7468,-4.7464,-4.7591,-4.7599,-4.7606,0,0,0,0,0,0,0,0,0,0,0,0,0,-4.712,-4.7127,-4.7444,-4.7446,-4.7448,-4.757,-4.7571,-4.7573,-4.7477,-4.7472,-4.7467,-4.7462,-4.7589,-4.7598,-4.7606,0,0,0,0,0,0,0,0,0,0,0,0,0,-4.7255,-4.7129,-4.7444,-4.7414,-4.7413,-4.7569,-4.7572,-4.7574,-4.7478,-4.7472,-4.7466,-4.746,-4.7586,-4.7597,-4.7608,-4.78,0,0,-4.7641,-4.7646,0,0,0,0,0,0,0,0,-4.7248,-4.7267,-4.7417,-4.7417,-4.7415,-4.7501,-4.7504,-4.7649,-4.748,-4.7453,-4.7464,-4.7457,-4.7566,-4.7579,-4.7616,-4.7806,-4.7811,-4.7642,-4.7648,-4.7653,-4.7656,0,0,0,0,0,0,0,-4.7238,-4.7261,-4.7494,-4.7419,-4.7418,-4.7394,-4.7407,-4.7531,-4.7543,-4.7455,-4.7449,-4.7465,-4.7565,-4.7605,-4.7618,-4.7813,-4.7642,-4.7651,-4.7658,-4.7662,-4.8166,-4.8173,0,0,0,0,0,0,-4.7232,-4.7254,-4.749,-4.7498,-4.7314,-4.7405,-4.7419,-4.748,-4.7542,-4.7545,-4.747,-4.746,-4.759,-4.7605,-4.7622,-4.785,-4.7653,-4.7663,-4.767,-4.8159,-4.8168,-4.8175,0,0,0,0,0,0,-4.7225,-4.7254,-4.7485,-4.7374,-4.7402,-4.7417,-4.7487,-4.7486,-4.7526,-4.7553,-4.7554,-4.7509,-4.7586,-4.7607,-4.7756,-4.7854,-4.7668,-4.7678,-4.8151,-4.8162,-4.8171,-4.8309,0,0,0,0,0,0,-4.7217,-4.7252,-4.7326,-4.7377,-4.7408,-4.7618,-4.7493,-4.7493,-4.7545,-4.7533,-4.759,-4.7594,-4.7582,-4.774,-4.7767,-4.7865,-4.7687,-4.8142,-4.8156,-4.8168,-4.8296,-4.8323,-4.8346,0,0,0,0,0,-4.7205,-4.7359,-4.733,-4.7359,-4.75,-4.7624,-4.7641,-4.7626,-4.7554,-4.7627,-4.7644,-4.7592,-4.7839,-4.7757,-4.7786,-4.7889,-4.8136,-4.8152,-4.8167,-4.8285,-4.8318,-4.8345,0,0,0,0,0,0,-4.7319,-4.7365,-4.7333,-4.7509,-4.7563,-4.7607,-4.7699,-4.7661,-4.7736,-4.7722,-4.7699,-4.7712,-4.7869,-4.7894,-4.7801,-4.8077,-4.7976,-4.7998,-4.8056,-4.8087,-4.8112,-4.8102,-4.7696,0,0,0,0,0,-4.7365,-4.7462,-4.7497,-4.7648,-4.7677,-4.7684,-4.7737,-4.772,-4.7775,-4.7798,-4.7825,-4.7881,-4.797,-4.803,-4.8114,-4.8299,-4.831,-4.8385,-4.8409,-4.843,-4.8449,-4.8548,-4.8581,-4.8226,-4.8225,-4.8225,0,0,-4.746,-4.7497,-4.7559,-4.7672,-4.7712,-4.7812,-4.7704,-4.7814,-4.7888,-4.7814,-4.7957,-4.798,-4.804,-4.8208,-4.8283,-4.8233,-4.855,-4.845,-4.8466,-4.8474,-4.8567,-4.8601,-4.8631,-4.8236,-4.8234,-4.8232,0,0,-4.7684,-4.7722,-4.7852,-4.7895,-4.7957,-4.7961,-4.7992,-4.8042,-4.8055,-4.8198,-4.8144,-4.8231,-4.8387,-4.8432,-4.8475,-4.8717,-4.8671,-4.8745,-4.8875,-4.8972,-4.9,-4.9025,-4.911,-4.9141,-4.8764,-4.8764,-4.8764,0,-4.7794,-4.7943,-4.7923,-4.8038,-4.8089,-4.8027,-4.8158,-4.82,-4.8287,-4.8323,-4.8266,-4.846,-4.8496,-4.8673,-4.8732,-4.877,-4.8804,-4.8738,-4.8998,-4.9022,-4.9045,-4.9126,-4.9159,-4.8773,-4.8772,-4.8771,-4.877,0,-4.8075,-4.8179,-4.8277,-4.8362,-4.8424,-4.8546,-4.8545,-4.861,-4.8588,-4.8598,-4.8744,-4.8785,-4.8876,-4.8917,-4.8897,-4.9092,-4.9059,-4.9001,-4.8898,-4.9088,-4.9164,-4.9195,-4.8785,-4.8782,-4.8779,-4.8777,0,0,-4.8373,-4.8447,-4.8483,-4.8521,-4.8585,-4.8665,-4.8785,-4.8875,-4.893,-4.8992,-4.9092,-4.9225,-4.9171,-4.922,-4.9204,-4.9289,-4.9477,-4.922,-4.9221,-4.9266,-4.9694,-4.9738,-4.9774,-4.9448,-4.9454,-4.9458,-4.9689,0,-4.86,-4.8808,-4.8795,-4.8991,-4.9086,-4.9029,-4.9133,-4.9184,-4.9196,-4.9279,-4.9292,-4.9387,-4.9309,-4.9338,-4.942,-4.9437,-4.9563,-4.942,-4.9539,-4.9544,-4.9525,-4.9814,-4.986,-5.0076,-4.9719,-4.9724,-4.9728,0,-4.8892,-4.8964,-4.917,-4.922,-4.926,-4.9354,-4.9434,-4.9515,-4.9571,-4.9574,-4.9629,-4.9599,-4.9719,-4.9614,-4.9779,-4.9683,-4.973,-4.9746,-4.9754,-4.9764,-4.9647,-4.9831,-5.0145,-5.0177,-4.9774,-4.977,-4.9767,0,-4.9088,-4.9237,-4.938,-4.9414,-4.9476,-4.9543,-4.9572,-4.9622,-4.9677,-4.9747,-4.9783,-4.9867,-4.9912,-4.9978,-4.9971,-4.9895,-5.0139,-5.0033,-5.0144,-5.0144,-5.0197,-5.0194,-5.0522,-5.0229,-5.0229,-5.0228,-5.0228,0,-4.9342,-4.9471,-4.9469,-4.9556,-4.9698,-4.9681,-4.9821,-4.9842,-4.9887,-4.9978,-4.9933,-5.0019,-5.0005,-5.0091,-5.0086,-5.0223,-5.0244,-5.0249,-5.0246,-5.0253,-5.0252,-5.0284,-5.0268,-5.0237,-5.0235,-5.0233,-5.0232,0,-4.9586,-4.959,-4.9741,-4.9787,-4.9802,-4.9904,-4.9943,-5.0026,-5.0035,-5.015,-5.0175,-5.0189,-5.0288,-5.0288,-5.04,-5.0397,-5.0564,-5.0545,-5.0546,-5.0542,-5.0652,-5.0641,-5.1011,-5.1059,-5.0736,-5.0739,-5.0741,0,-4.9747,-4.9844,-4.9901,-4.9959,-4.9992,-5.0085,-5.0141,-5.0128,-5.0188,-5.0259,-5.0333,-5.0427,-5.0502,-5.0662,-5.0682,-5.0767,-5.0749,-5.0873,-5.0761,-5.0765,-5.075,-5.0744,-5.0754,-5.0894,-5.0898,-5.0901,-5.0903,0,-5.0033,-5.0031,-5.0113,-5.0197,-5.0265,-5.033,-5.0389,-5.0439,-5.0432,-5.0502,-5.0602,-5.066,-5.0775,-5.0869,-5.0952,-5.0981,-5.0942,-5.0938,-5.0968,-5.0976,-5.0972,-5.0975,-5.0604,-5.093,-5.0927,-5.0925,-5.0924,-5.0923,-5.024,-5.0324,-5.0377,-5.047,-5.0514,-5.0571,-5.0651,-5.067,-5.0753,-5.0846,-5.0833,-5.0945,-5.0998,-5.1105,-5.1142,-5.1229,-5.1185,-5.1229,-5.124,-5.1251,-5.1263,-5.0959,-5.1244,-5.1243,-5.1242,-5.1242,-5.1241,0,-5.0523,-5.0555,-5.0641,-5.0726,-5.08,-5.0757,-5.0821,-5.0885,-5.0984,-5.1037,-5.1112,-5.1227,-5.1318,-5.1346,-5.1433,-5.1498,-5.1482,-5.1521,-5.1516,-5.1523,-5.1297,-5.1262,-5.1533,-5.1533,-5.1533,-5.1533,-5.1532,-5.1532,-5.068,-5.0819,-5.0822,-5.0983,-5.1013,-5.1122,-5.1163,-5.1215,-5.1257,-5.1388,-5.1464,-5.1481,-5.1524,-5.1615,-5.1696,-5.1702,-5.1736,-5.1783,-5.1781,-5.1569,-5.1539,-5.1511,-5.1478,-5.1791,-5.1791,-5.2,-5.2002,-5.2004]}]]